This is the latest recevied weather packets stored in our database for station/object EA2CW-13. If no packets are shown the sender has not sent any weather packets the latest 10 day(s).
| Time | Temp. | Humidity | Pressure | Rain* | Wind** | Luminosity | Snow |
|---|---|---|---|---|---|---|---|
| 1777453343 | 20.56° C | 78% | 1045.4 hPa | - | - | 36 W/m² | - |
| 1777452407 | 20° C | 82% | 1045.5 hPa | - | - | 36 W/m² | - |
| 1777451471 | 19.44° C | 85% | 1045.6 hPa | - | - | 33 W/m² | - |
| 1777450535 | 18.33° C | 86% | 1045.6 hPa | - | - | 24 W/m² | - |
| 1777449599 | 17.78° C | 86% | 1045.8 hPa | - | - | 10 W/m² | - |
| 1777448663 | 17.78° C | 86% | 1045.7 hPa | - | - | 9 W/m² | - |
| 1777447727 | 17.78° C | 86% | 1045.8 hPa | - | - | 11 W/m² | - |
| 1777446791 | 17.78° C | 87% | 1045.7 hPa | - | - | 7 W/m² | - |
| 1777445855 | 18.33° C | 88% | 1045.6 hPa | - | - | 13 W/m² | - |
| 1777444919 | 17.78° C | 90% | 1045.6 hPa | - | - | 8 W/m² | - |
| 1777443983 | 17.22° C | 91% | 1045.5 hPa | - | - | 5 W/m² | - |
| 1777443047 | 17.22° C | 92% | 1045.4 hPa | - | - | 3 W/m² | - |
| 1777442111 | 16.67° C | 93% | 1045.5 hPa | - | - | 2 W/m² | - |
| 1777441175 | 16.67° C | 94% | 1045.4 hPa | - | - | 0 W/m² | - |
| 1777440239 | 16.67° C | 95% | 1045.4 hPa | - | - | 0 W/m² | - |
| 1777439303 | 16.11° C | 95% | 1045.4 hPa | - | - | 0 W/m² | - |
| 1777438367 | 16.67° C | 95% | 1045.3 hPa | - | - | 0 W/m² | - |
| 1777437431 | 16.67° C | 95% | 1045.4 hPa | - | - | 0 W/m² | - |
| 1777436495 | 16.67° C | 95% | 1045.5 hPa | - | - | 0 W/m² | - |
| 1777435559 | 16.11° C | 94% | 1045.6 hPa | - | - | 0 W/m² | - |
| 1777434623 | 16.11° C | 94% | 1045.7 hPa | - | - | 0 W/m² | - |
| 1777433687 | 16.11° C | 93% | 1045.7 hPa | - | - | 0 W/m² | - |
| 1777432751 | 16.11° C | 92% | 1045.9 hPa | - | - | 0 W/m² | - |
| 1777431816 | 15.56° C | 91% | 1046.1 hPa | - | - | 0 W/m² | - |
| 1777430880 | 16.11° C | 90% | 1046.1 hPa | - | - | 0 W/m² | - |
* Rain since midnight (hover to see other rain measurements)
** Current wind speed in m/s (hover to see current wind gust speed)